Eugene, Missouri, United States (65032)
Lat: 38.35N, Lon: 92.4W
Wx Zone: MOZ048
Local Info
Past Weather Observations for Today

NOTE: This archive is for the closest National Weather Service station to Eugene. Information may differ from the station used for current weather conditions.

Click here for Long-term Archive

Time Weather Temperature Dewpoint Humidity Pressure Winds Precip Visibility
15:55
Overcast
55°F / 13°C 52°F / 11°C 88% 29.33 in
(993 mb)
Calm - 2 1/2SM
15:35
Overcast
55°F / 13°C 54°F / 12°C 94% 29.33 in
(993 mb)
Calm - 4SM
15:15
Mostly Cloudy
55°F / 13°C 54°F / 12°C 94% 29.36 in
(994 mb)
Calm - 2 1/2SM
14:55
Overcast
55°F / 13°C 54°F / 12°C 94% 29.36 in
(994 mb)
Calm 0.01 in
(0.25 mm)
2 1/2SM
14:35
Overcast
55°F / 13°C 52°F / 11°C 88% 29.36 in
(994 mb)
Calm 0.01 in
(0.25 mm)
2 1/2SM
14:15
Overcast
55°F / 13°C 52°F / 11°C 88% 29.36 in
(994 mb)
SE 3.5 mph
(SE 6 kph)
0.01 in
(0.25 mm)
1 1/2SM
13:55
Overcast
55°F / 13°C 52°F / 11°C 88% 29.39 in
(995 mb)
SSE 4.6 mph
(SSE 7 kph)
- 2 1/2SM
13:35
Overcast
55°F / 13°C 52°F / 11°C 88% 29.39 in
(995 mb)
Calm - 2 1/2SM
13:15
Overcast
55°F / 13°C 52°F / 11°C 88% 29.39 in
(995 mb)
SE 4.6 mph
(SE 7 kph)
- 2SM
12:55
Overcast
55°F / 13°C 52°F / 11°C 88% 29.42 in
(996 mb)
SE 3.5 mph
(SE 6 kph)
- 3SM
12:35
Overcast
55°F / 13°C 52°F / 11°C 88% 29.42 in
(996 mb)
SE 5.8 mph
(SE 9 kph)
- 9SM
12:15
Overcast
55°F / 13°C 52°F / 11°C 88% 29.44 in
(997 mb)
SE 5.8 mph
(SE 9 kph)
- 10SM
11:55
Overcast
55°F / 13°C 52°F / 11°C 88% 29.44 in
(997 mb)
SE 5.8 mph
(SE 9 kph)
- 10SM
11:35
Overcast
55°F / 13°C 52°F / 11°C 88% 29.47 in
(998 mb)
SSE 4.6 mph
(SSE 7 kph)
- 10SM
11:15
Overcast
55°F / 13°C 52°F / 11°C 88% 29.5 in
(999 mb)
SSE 4.6 mph
(SSE 7 kph)
- 10SM
10:55
Overcast
55°F / 13°C 52°F / 11°C 88% 29.5 in
(999 mb)
SSE 6.9 mph
(SSE 11 kph)
0.01 in
(0.25 mm)
7SM
10:35
Overcast
55°F / 13°C 52°F / 11°C 88% 29.53 in
(1000 mb)
SSE 8.1 mph
(SSE 13 kph)
- 10SM
10:15
Overcast
55°F / 13°C 52°F / 11°C 88% 29.53 in
(1000 mb)
SSE 6.9 mph
(SSE 11 kph)
- 8SM
09:55
Overcast
55°F / 13°C 52°F / 11°C 88% 29.56 in
(1001 mb)
SSE 5.8 mph
(SSE 9 kph)
- 9SM
09:35
Overcast
55°F / 13°C 52°F / 11°C 88% 29.56 in
(1001 mb)
SSE 5.8 mph
(SSE 9 kph)
- 10SM
09:15
Overcast
55°F / 13°C 52°F / 11°C 88% 29.59 in
(1002 mb)
S 6.9 mph
(S 11 kph)
- 10SM
08:55
Overcast
55°F / 13°C 52°F / 11°C 88% 29.59 in
(1002 mb)
SSE 6.9 mph
(SSE 11 kph)
- 10SM
08:35
Overcast
55°F / 13°C 52°F / 11°C 88% 29.59 in
(1002 mb)
SSE 8.1 mph
(SSE 13 kph)
- 10SM
08:15
Overcast
55°F / 13°C 52°F / 11°C 88% 29.59 in
(1002 mb)
S 6.9 mph
(S 11 kph)
- 10SM
07:55
Overcast
54°F / 12°C 52°F / 11°C 94% 29.59 in
(1002 mb)
SSE 6.9 mph
(SSE 11 kph)
- 10SM
07:35
Overcast
54°F / 12°C 50°F / 10°C 88% 29.59 in
(1002 mb)
SSE 5.8 mph
(SSE 9 kph)
- 10SM
07:15
Overcast
54°F / 12°C 50°F / 10°C 88% 29.59 in
(1002 mb)
SE 5.8 mph
(SE 9 kph)
- 9SM
06:55
Overcast
54°F / 12°C 50°F / 10°C 88% 29.62 in
(1003 mb)
SSE 6.9 mph
(SSE 11 kph)
0.04 in
(1.02 mm)
8SM
06:35
Overcast
52°F / 11°C 48°F / 9°C 88% 29.62 in
(1003 mb)
SSE 6.9 mph
(SSE 11 kph)
0.04 in
(1.02 mm)
9SM
06:15
Overcast
52°F / 11°C 48°F / 9°C 88% 29.62 in
(1003 mb)
SE 8.1 mph
(SE 13 kph)
0.03 in
(0.76 mm)
6SM
05:55
Mostly Cloudy
52°F / 11°C 48°F / 9°C 88% 29.65 in
(1004 mb)
SE 8.1 mph
(SE 13 kph)
0.04 in
(1.02 mm)
5SM
05:35
Mostly Cloudy
52°F / 11°C 48°F / 9°C 88% 29.65 in
(1004 mb)
SE 6.9 mph
(SE 11 kph)
0.01 in
(0.25 mm)
8SM
05:15
Overcast
52°F / 11°C 48°F / 9°C 88% 29.65 in
(1004 mb)
SE 5.8 mph
(SE 9 kph)
- 8SM
04:55
Overcast
54°F / 12°C 48°F / 9°C 82% 29.68 in
(1005 mb)
SSE 5.8 mph
(SSE 9 kph)
0.06 in
(1.52 mm)
8SM
04:35
Overcast
54°F / 12°C 48°F / 9°C 82% 29.68 in
(1005 mb)
SSE 8.1 mph
(SSE 13 kph)
0.02 in
(0.51 mm)
7SM
04:15
Overcast
54°F / 12°C 48°F / 9°C 82% 29.68 in
(1005 mb)
SSE 9.2 mph
(SSE 15 kph)
- 10SM
03:55
Mostly Cloudy
54°F / 12°C 48°F / 9°C 82% 29.68 in
(1005 mb)
SSE 6.9 mph
(SSE 11 kph)
- 10SM
03:35
Partly Cloudy
54°F / 12°C 48°F / 9°C 82% 29.68 in
(1005 mb)
SSE 5.8 mph
(SSE 9 kph)
- 10SM
03:15
Clear
54°F / 12°C 48°F / 9°C 82% 29.68 in
(1005 mb)
SE 4.6 mph
(SE 7 kph)
- 10SM
02:55
Partly Cloudy
54°F / 12°C 48°F / 9°C 82% 29.68 in
(1005 mb)
S 6.9 mph
(S 11 kph)
- 10SM
02:35
Overcast
55°F / 13°C 48°F / 9°C 77% 29.71 in
(1006 mb)
S 11.5 mph
(S 19 kph)
- 10SM
02:15
Overcast
55°F / 13°C 48°F / 9°C 77% 29.74 in
(1007 mb)
S 6.9 mph
(S 11 kph)
- 10SM
01:55
Overcast
55°F / 13°C 48°F / 9°C 77% 29.74 in
(1007 mb)
S 12.7 mph
(S 20 kph)
- 10SM
01:35
Overcast
54°F / 12°C 48°F / 9°C 82% 29.74 in
(1007 mb)
S 11.5 mph
(S 19 kph)
- 10SM
01:15
Partly Cloudy
54°F / 12°C 46°F / 8°C 77% 29.74 in
(1007 mb)
SSE 8.1 mph
(SSE 13 kph)
- 10SM
00:55
Partly Cloudy
54°F / 12°C 48°F / 9°C 82% 29.74 in
(1007 mb)
SSE 5.8 mph
(SSE 9 kph)
- 10SM
00:35
Mostly Cloudy
54°F / 12°C 48°F / 9°C 82% 29.74 in
(1007 mb)
S 9.2 mph
(S 15 kph)
- 10SM
00:15
Clear
54°F / 12°C 48°F / 9°C 82% 29.77 in
(1008 mb)
SSE 11.5 mph
(SSE 19 kph)
- 10SM
Time Weather Temperature Dewpoint Humidity Pressure Winds Precip Visibility


Weather for websites

WeatherForYou.com, LLC is not responsible for any damages or problems caused by this service. Current weather conditions are obtained from the closest station including government and personal stations which may have varying degrees of accuracy. Weather forecasts are derived from the NOAA NDFD. Like all things, this site belongs to Jesus Christ... He just trusts me to maintain it. If you have any questions or comments email webmaster@weatherforyou.com

Copyright © 2014, WeatherForYou.com LLC. All rights reserved.